Location: Home
(42.5358°N, 72.7383°W)
Time: 22:21:52
(UTC-05:00)

Vanguard 2 Rocket - Pass Details

Date: 02 December 2021
Orbit: 554 x 3325 km, 32.9° (Epoch: 21 January)

Event Time Altitude Azimuth Distance (km) Brightness Sun altitude
Rises 02:27:11 0° 265° (W) 6,420 - -49.8°
Reaches altitude 10° 02:36:59 10° 236° (WSW) 5,985 - -48.0°
Maximum altitude 02:41:03 11° 224° (SW) 6,043 - -47.3°
Drops below altitude 10° 02:45:17 10° 211° (SSW) 6,234 - -46.5°
Exits shadow 02:50:34 - 197° (SSW) 6,620 11.0 -45.6°
Sets 02:56:49 0° 183° (S) 7,230 11.4 -44.5°
